Location: Munkebjergskolens Observatorium
(55.3864°N, 10.3987°E)
Time: 09:19:00
(UTC+02:00)

JY1SAT - Pass Details

Date: 01 April 2023
Orbit: 555 x 574 km, 97.6° (Epoch: 03 June)

Event Time Altitude Azimuth Distance (km) Brightness Sun altitude
Exits shadow 21:57:20 34° 132° (SE) 933 ? -16.7°
Maximum altitude 21:58:49 58° 70° (ENE) 667 ? -16.9°
Drops below altitude 10° 22:02:48 10° 352° (N) 1,878 ? -17.3°
Sets 22:04:59 0° 348° (NNW) 2,784 ? -17.6°
